Location: Ferchesar
(52.6477°N, 12.4298°E)
Time: 14:18:08
(UTC+02:00)

Transit 4A - Pass Details

Date: 03 March 2021
Orbit: 869 x 975 km, 66.8° (Epoch: 16 April)

Event Time Altitude Azimuth Distance (km) Brightness Sun altitude
Rises 13:59:25 0° 279° (W) 3,651 11.2 27.2°
Reaches altitude 10° 14:02:33 10° 293° (WNW) 2,691 10.5 27.0°
Maximum altitude 14:07:32 24° 346° (NNW) 1,849 9.3 26.7°
Drops below altitude 10° 14:12:27 10° 39° (NE) 2,638 9.8 26.3°
Sets 14:15:29 0° 53° (NE) 3,562 10.4 26.0°
